Terug naar catalogus

FIREFLY-3

ActiefWetenschapSSO
NORAD 62710·PAYLOAD·🇮🇳 India

Gelanceerd Jan 14, 2025 vanaf Vandenberg Space Force Base

Loading…

Volgende Passages (komende 24 uur)

TLE

VersSource: Space-Track

Epoch: Sep 14, 2026, 12:54 UTC

1 62710U 25009DF  26257.53780938  .00000598  00000-0  63334-4 0  9992
2 62710  97.6996 333.8047 0002185 206.5180 153.5928 14.92730921 90662

Volg FIREFLY-3 in realtime met AllMySat

Download on the App Store